| time (UTC) | temp F | wind direction | speed knots | gust knots | rain 1hr in | rain 24hr in | rain mn in | humidity % | barometer mb |
| 20260906180106 | 72 | 96 | 7.0 | 11.3 | 0.00 | 0.00 | 0.00 | 87 | 1019.9 |
| 20260906175555 | 72 | 106 | 7.0 | 11.3 | 0.00 | 0.00 | 0.00 | 87 | 1020.1 |
| 20260906175055 | 72 | 124 | 8.7 | 11.3 | 0.00 | 0.00 | 0.00 | 86 | 1020.1 |
| 20260906174603 | 72 | 119 | 7.0 | 10.4 | 0.00 | 0.00 | 0.00 | 86 | 1020.1 |
| 20260906174054 | 72 | 110 | 6.1 | 10.4 | 0.00 | 0.00 | 0.00 | 87 | 1020.1 |
| 20260906173556 | 72 | 112 | 7.0 | 10.4 | 0.00 | 0.00 | 0.00 | 86 | 1020.2 |
| 20260906173106 | 72 | 118 | 6.1 | 9.6 | 0.00 | 0.00 | 0.00 | 87 | 1020.3 |
| 20260906172554 | 72 | 130 | 6.1 | 9.6 | 0.00 | 0.00 | 0.00 | 87 | 1020.3 |
| 20260906172054 | 72 | 116 | 6.1 | 8.7 | 0.00 | 0.00 | 0.00 | 86 | 1020.3 |
| 20260906171605 | 72 | 136 | 6.1 | 8.7 | 0.00 | 0.00 | 0.00 | 86 | 1020.3 |
| 20260906171055 | 72 | 147 | 6.1 | 10.4 | 0.00 | 0.00 | 0.00 | 86 | 1020.3 |
| 20260906170554 | 72 | 122 | 7.0 | 10.4 | 0.00 | 0.00 | 0.00 | 86 | 1020.3 |
| 20260906170106 | 72 | 128 | 7.0 | 10.4 | 0.00 | 0.00 | 0.00 | 85 | 1020.3 |
| 20260906165556 | 72 | 94 | 6.1 | 8.7 | 0.00 | 0.00 | 0.00 | 86 | 1020.4 |
| 20260906165054 | 72 | 104 | 5.2 | 8.7 | 0.00 | 0.00 | 0.00 | 87 | 1020.4 |
| 20260906164617 | 72 | 116 | 6.1 | 8.7 | 0.00 | 0.00 | 0.00 | 86 | 1020.4 |
| 20260906164054 | 72 | 119 | 7.0 | 9.6 | 0.00 | 0.00 | 0.00 | 87 | 1020.4 |
| 20260906163555 | 72 | 128 | 6.1 | 9.6 | 0.00 | 0.00 | 0.00 | 87 | 1020.4 |
| 20260906163101 | 72 | 133 | 7.0 | 9.6 | 0.00 | 0.00 | 0.00 | 88 | 1020.3 |
| 20260906162555 | 71 | 116 | 4.3 | 8.7 | 0.00 | 0.00 | 0.00 | 89 | 1020.2 |
| 20260906162053 | 71 | 99 | 6.1 | 8.7 | 0.00 | 0.00 | 0.00 | 89 | 1020.3 |
| 20260906161558 | 71 | 107 | 4.3 | 7.8 | 0.00 | 0.00 | 0.00 | 88 | 1020.1 |
| 20260906161051 | 71 | 105 | 6.1 | 7.8 | 0.00 | 0.00 | 0.00 | 89 | 1020.1 |
| 20260906160554 | 71 | 109 | 4.3 | 9.6 | 0.00 | 0.00 | 0.00 | 89 | 1020.0 |
| 20260906160055 | 71 | 120 | 7.0 | 10.4 | 0.00 | 0.00 | 0.00 | 89 | 1020.0 |
| 20260906155555 | 70 | 126 | 7.0 | 10.4 | 0.00 | 0.00 | 0.00 | 89 | 1020.0 |
| 20260906155059 | 70 | 140 | 7.8 | 12.2 | 0.00 | 0.00 | 0.00 | 90 | 1019.9 |
| 20260906154603 | 70 | 128 | 8.7 | 12.2 | 0.00 | 0.00 | 0.00 | 91 | 1019.9 |
| 20260906154056 | 69 | 138 | 7.0 | 11.3 | 0.00 | 0.00 | 0.00 | 91 | 1020.1 |
| 20260906153554 | 69 | 117 | 7.8 | 11.3 | 0.00 | 0.00 | 0.00 | 92 | 1020.1 |
| 20260906153100 | 69 | 130 | 6.1 | 11.3 | 0.00 | 0.00 | 0.00 | 92 | 1020.1 |
| 20260906152556 | 69 | 125 | 7.8 | 11.3 | 0.00 | 0.00 | 0.00 | 92 | 1020.0 |
| 20260906152054 | 68 | 101 | 7.8 | 10.4 | 0.00 | 0.00 | 0.00 | 92 | 1020.2 |
| 20260906151609 | 68 | 120 | 7.0 | 10.4 | 0.00 | 0.00 | 0.00 | 93 | 1020.2 |
| 20260906151056 | 68 | 123 | 7.8 | 10.4 | 0.00 | 0.00 | 0.00 | 93 | 1020.3 |
| 20260906150555 | 68 | 129 | 7.0 | 10.4 | 0.00 | 0.00 | 0.00 | 94 | 1020.4 |
| 20260906150109 | 68 | 114 | 7.8 | 10.4 | 0.00 | 0.00 | 0.00 | 94 | 1020.4 |
| 20260906145554 | 68 | 125 | 7.0 | 8.7 | 0.00 | 0.00 | 0.00 | 94 | 1020.4 |
| 20260906145055 | 68 | 123 | 6.1 | 8.7 | 0.00 | 0.00 | 0.00 | 95 | 1020.5 |
| 20260906144621 | 67 | 127 | 6.1 | 8.7 | 0.00 | 0.00 | 0.00 | 95 | 1020.6 |
| 20260906144055 | 67 | 136 | 6.1 | 8.7 | 0.00 | 0.00 | 0.00 | 96 | 1020.6 |
| 20260906143555 | 67 | 122 | 7.0 | 10.4 | 0.00 | 0.00 | 0.00 | 96 | 1020.4 |
| 20260906143116 | 67 | 115 | 7.0 | 10.4 | 0.00 | 0.00 | 0.00 | 96 | 1020.3 |
| 20260906142554 | 67 | 125 | 7.8 | 10.4 | 0.00 | 0.00 | 0.00 | 96 | 1020.3 |
| 20260906142055 | 67 | 115 | 7.0 | 10.4 | 0.00 | 0.00 | 0.00 | 96 | 1020.4 |
| 20260906141606 | 67 | 111 | 7.8 | 10.4 | 0.00 | 0.00 | 0.00 | 96 | 1020.4 |
| 20260906141054 | 67 | 118 | 6.1 | 11.3 | 0.00 | 0.00 | 0.00 | 96 | 1020.6 |
| 20260906140556 | 67 | 124 | 8.7 | 11.3 | 0.00 | 0.00 | 0.00 | 96 | 1020.6 |
| 20260906140107 | 66 | 128 | 7.8 | 11.3 | 0.00 | 0.00 | 0.00 | 97 | 1020.5 |
| 20260906135555 | 66 | 157 | 7.8 | 11.3 | 0.00 | 0.00 | 0.00 | 97 | 1020.5 |
| 20260906135056 | 66 | 133 | 7.8 | 11.3 | 0.00 | 0.00 | 0.00 | 97 | 1020.4 |
| 20260906134600 | 66 | 119 | 7.8 | 11.3 | 0.00 | 0.00 | 0.00 | 97 | 1020.2 |
| 20260906134056 | 66 | 129 | 7.0 | 9.6 | 0.00 | 0.00 | 0.00 | 97 | 1020.1 |
| 20260906133554 | 66 | 130 | 5.2 | 9.6 | 0.00 | 0.00 | 0.00 | 98 | 1020.1 |
| 20260906133107 | 66 | 126 | 7.8 | 9.6 | 0.00 | 0.00 | 0.00 | 97 | 1020.0 |
| 20260906132554 | 66 | 126 | 5.2 | 8.7 | 0.00 | 0.00 | 0.00 | 98 | 1019.9 |
| 20260906132056 | 66 | 115 | 5.2 | 8.7 | 0.00 | 0.00 | 0.00 | 98 | 1019.9 |
| 20260906131610 | 66 | 131 | 7.0 | 8.7 | 0.00 | 0.00 | 0.00 | 98 | 1019.9 |
| 20260906131053 | 66 | 130 | 5.2 | 7.8 | 0.00 | 0.00 | 0.00 | 98 | 1019.9 |
| 20260906130553 | 66 | 111 | 5.2 | 10.4 | 0.00 | 0.00 | 0.00 | 98 | 1019.8 |
| 20260906130106 | 66 | 109 | 7.0 | 11.3 | 0.00 | 0.00 | 0.00 | 98 | 1019.7 |
| 20260906125553 | 66 | 100 | 7.0 | 11.3 | 0.00 | 0.00 | 0.00 | 98 | 1019.6 |
| 20260906125053 | 66 | 119 | 8.7 | 13.9 | 0.00 | 0.00 | 0.00 | 98 | 1019.7 |
| 20260906124604 | 66 | 119 | 9.6 | 13.9 | 0.00 | 0.00 | 0.00 | 98 | 1019.7 |
| 20260906124053 | 66 | 107 | 9.6 | 12.2 | 0.00 | 0.00 | 0.00 | 98 | 1019.7 |
| 20260906123554 | 66 | 121 | 9.6 | 11.3 | 0.00 | 0.00 | 0.00 | 98 | 1019.6 |
| 20260906123110 | 66 | 119 | 7.8 | 11.3 | 0.00 | 0.00 | 0.00 | 98 | 1019.6 |
| 20260906122553 | 66 | 110 | 7.0 | 11.3 | 0.00 | 0.00 | 0.00 | 98 | 1019.5 |
| 20260906122056 | 66 | 115 | 8.7 | 11.3 | 0.00 | 0.00 | 0.00 | 98 | 1019.5 |
| 20260906121602 | 66 | 113 | 7.0 | 12.2 | 0.00 | 0.00 | 0.00 | 98 | 1019.5 |
| 20260906121053 | 66 | 117 | 7.8 | 11.3 | 0.00 | 0.00 | 0.00 | 98 | 1019.5 |
| 20260906120556 | 66 | 114 | 8.7 | 11.3 | 0.00 | 0.00 | 0.00 | 98 | 1019.5 |
| 20260906120126 | 66 | 134 | 7.8 | 10.4 | 0.00 | 0.00 | 0.00 | 98 | 1019.4 |
| 20260906115553 | 66 | 128 | 7.0 | 9.6 | 0.00 | 0.00 | 0.00 | 98 | 1019.4 |
| 20260906115055 | 66 | 119 | 7.0 | 9.6 | 0.00 | 0.00 | 0.00 | 98 | 1019.2 |
| 20260906114618 | 66 | 129 | 7.8 | 9.6 | 0.00 | 0.00 | 0.00 | 98 | 1019.1 |
| 20260906114056 | 66 | 126 | 6.1 | 9.6 | 0.00 | 0.00 | 0.00 | 98 | 1019.2 |
| 20260906113553 | 66 | 129 | 7.0 | 9.6 | 0.00 | 0.00 | 0.00 | 98 | 1019.1 |
| 20260906113058 | 67 | 122 | 4.3 | 9.6 | 0.00 | 0.00 | 0.00 | 98 | 1019.2 |
| 20260906112553 | 67 | 136 | 6.1 | 9.6 | 0.00 | 0.00 | 0.00 | 98 | 1019.3 |
| 20260906112052 | 67 | 142 | 3.5 | 7.0 | 0.00 | 0.00 | 0.00 | 98 | 1019.4 |
| 20260906111604 | 67 | 122 | 3.5 | 9.6 | 0.00 | 0.00 | 0.00 | 98 | 1019.3 |
| 20260906111057 | 67 | 133 | 6.1 | 9.6 | 0.00 | 0.00 | 0.00 | 98 | 1019.3 |
| 20260906110553 | 67 | 131 | 5.2 | 10.4 | 0.00 | 0.00 | 0.00 | 98 | 1019.2 |
| 20260906110111 | 67 | 142 | 7.8 | 10.4 | 0.00 | 0.00 | 0.00 | 98 | 1019.1 |
| 20260906105553 | 67 | 135 | 7.8 | 12.2 | 0.00 | 0.01 | 0.00 | 98 | 1019.1 |
| 20260906105054 | 67 | 130 | 7.8 | 12.2 | 0.00 | 0.01 | 0.00 | 98 | 1019.0 |
| 20260906104605 | 67 | 156 | 6.1 | 10.4 | 0.00 | 0.01 | 0.00 | 98 | 1018.9 |
| 20260906104058 | 67 | 143 | 7.8 | 13.0 | 0.00 | 0.01 | 0.00 | 98 | 1018.9 |
| 20260906103553 | 67 | 146 | 7.8 | 13.0 | 0.00 | 0.01 | 0.00 | 98 | 1018.9 |
| 20260906103059 | 67 | 142 | 8.7 | 13.0 | 0.00 | 0.01 | 0.00 | 98 | 1018.9 |
| 20260906102554 | 67 | 124 | 6.1 | 10.4 | 0.00 | 0.01 | 0.00 | 98 | 1018.9 |
| 20260906102054 | 67 | 128 | 6.1 | 9.6 | 0.00 | 0.01 | 0.00 | 98 | 1018.8 |
| 20260906101604 | 67 | 138 | 7.0 | 10.4 | 0.00 | 0.01 | 0.00 | 98 | 1018.7 |
| 20260906101054 | 67 | 138 | 7.0 | 11.3 | 0.00 | 0.01 | 0.00 | 98 | 1018.7 |
| 20260906100554 | 67 | 117 | 7.8 | 11.3 | 0.00 | 0.01 | 0.00 | 98 | 1018.6 |
| 20260906100105 | 67 | 136 | 6.1 | 9.6 | 0.00 | 0.01 | 0.00 | 98 | 1018.6 |
| 20260906095554 | 66 | 136 | 6.1 | 9.6 | 0.00 | 0.01 | 0.00 | 98 | 1018.7 |
| 20260906095057 | 66 | 123 | 4.3 | 7.0 | 0.00 | 0.01 | 0.00 | 98 | 1018.7 |
| 20260906094557 | 65 | 140 | 4.3 | 7.0 | 0.00 | 0.01 | 0.00 | 97 | 1018.7 |
| 20260906094054 | 66 | 136 | 3.5 | 7.0 | 0.00 | 0.01 | 0.00 | 97 | 1018.6 |
| 20260906093555 | 66 | 109 | 5.2 | 7.0 | 0.00 | 0.01 | 0.00 | 97 | 1018.5 |
| 20260906093115 | 66 | 111 | 5.2 | 7.0 | 0.00 | 0.01 | 0.00 | 97 | 1018.4 |
| 20260906092554 | 66 | 103 | 5.2 | 7.8 | 0.00 | 0.01 | 0.00 | 97 | 1018.2 |
| 20260906092055 | 66 | 102 | 6.1 | 8.7 | 0.00 | 0.01 | 0.00 | 97 | 1018.2 |
| 20260906091606 | 66 | 107 | 6.1 | 8.7 | 0.00 | 0.01 | 0.00 | 97 | 1018.0 |
| 20260906091059 | 66 | 109 | 5.2 | 8.7 | 0.00 | 0.01 | 0.00 | 97 | 1018.0 |
| 20260906090554 | 66 | 100 | 7.0 | 9.6 | 0.00 | 0.01 | 0.00 | 97 | 1018.0 |
| 20260906090133 | 66 | 111 | 7.0 | 9.6 | 0.00 | 0.01 | 0.00 | 97 | 1017.9 |
| 20260906085554 | 66 | 114 | 7.8 | 9.6 | 0.00 | 0.01 | 0.00 | 97 | 1017.8 |
| 20260906085054 | 66 | 113 | 7.0 | 8.7 | 0.00 | 0.01 | 0.00 | 97 | 1017.9 |
| 20260906084558 | 66 | 102 | 6.1 | 8.7 | 0.00 | 0.01 | 0.00 | 97 | 1017.9 |
| 20260906084053 | 67 | 84 | 6.1 | 9.6 | 0.00 | 0.01 | 0.00 | 97 | 1017.8 |
| 20260906083554 | 67 | 117 | 7.0 | 9.6 | 0.00 | 0.01 | 0.00 | 97 | 1017.8 |
| 20260906083056 | 67 | 108 | 6.1 | 9.6 | 0.00 | 0.01 | 0.00 | 97 | 1017.8 |
| 20260906082554 | 67 | 102 | 7.0 | 9.6 | 0.00 | 0.01 | 0.00 | 97 | 1017.9 |
| 20260906082053 | 67 | 111 | 6.1 | 8.7 | 0.00 | 0.01 | 0.00 | 97 | 1018.1 |
| 20260906081557 | 66 | 112 | 6.1 | 8.7 | 0.00 | 0.01 | 0.00 | 97 | 1018.0 |
| 20260906081056 | 66 | 111 | 4.3 | 7.0 | 0.00 | 0.01 | 0.00 | 97 | 1018.1 |
| 20260906080554 | 66 | 84 | 2.6 | 7.8 | 0.00 | 0.01 | 0.00 | 97 | 1018.1 |
| 20260906080105 | 67 | 107 | 6.1 | 7.8 | 0.00 | 0.01 | 0.00 | 97 | 1018.0 |
| 20260906075555 | 67 | 101 | 6.1 | 9.6 | 0.00 | 0.01 | 0.00 | 97 | 1018.1 |
| 20260906075055 | 67 | 108 | 5.2 | 9.6 | 0.00 | 0.01 | 0.00 | 97 | 1018.1 |
| 20260906074600 | 67 | 78 | 6.1 | 7.8 | 0.00 | 0.01 | 0.00 | 97 | 1018.1 |
| 20260906074054 | 67 | 86 | 5.2 | 7.8 | 0.00 | 0.01 | 0.00 | 97 | 1018.2 |
| 20260906073554 | 67 | 103 | 4.3 | 8.7 | 0.00 | 0.01 | 0.00 | 97 | 1018.1 |
| 20260906073057 | 67 | 98 | 6.1 | 7.8 | 0.00 | 0.01 | 0.00 | 97 | 1018.2 |
| 20260906072558 | 67 | 105 | 6.1 | 7.8 | 0.00 | 0.01 | 0.00 | 97 | 1018.3 |
| 20260906072056 | 67 | 102 | 5.2 | 7.0 | 0.00 | 0.01 | 0.00 | 97 | 1018.4 |
| 20260906071610 | 67 | 88 | 4.3 | 7.0 | 0.00 | 0.01 | 0.00 | 97 | 1018.5 |
| 20260906071056 | 67 | 107 | 5.2 | 7.0 | 0.00 | 0.01 | 0.00 | 97 | 1018.4 |
| 20260906070553 | 67 | 116 | 4.3 | 6.1 | 0.00 | 0.01 | 0.00 | 97 | 1018.5 |
| 20260906070105 | 67 | 83 | 4.3 | 7.0 | 0.00 | 0.01 | 0.00 | 97 | 1018.5 |
| 20260906065553 | 67 | 104 | 4.3 | 7.8 | 0.00 | 0.01 | 0.00 | 97 | 1018.5 |
| 20260906065055 | 67 | 113 | 5.2 | 7.8 | 0.00 | 0.01 | 0.00 | 97 | 1018.5 |
| 20260906064600 | 67 | 104 | 5.2 | 7.8 | 0.00 | 0.01 | 0.00 | 97 | 1018.5 |
| 20260906064056 | 67 | 103 | 5.2 | 7.0 | 0.00 | 0.01 | 0.00 | 97 | 1018.6 |
| 20260906063555 | 67 | 109 | 5.2 | 7.0 | 0.00 | 0.01 | 0.00 | 97 | 1018.6 |
| 20260906063106 | 67 | 106 | 4.3 | 7.0 | 0.00 | 0.01 | 0.00 | 97 | 1018.7 |
| 20260906062552 | 67 | 66 | 3.5 | 7.0 | 0.00 | 0.01 | 0.00 | 97 | 1018.7 |
| 20260906062057 | 67 | 101 | 5.2 | 7.0 | 0.00 | 0.01 | 0.00 | 97 | 1018.6 |
| 20260906061607 | 67 | 103 | 4.3 | 6.1 | 0.00 | 0.01 | 0.00 | 96 | 1018.6 |
| 20260906061054 | 67 | 96 | 4.3 | 6.1 | 0.00 | 0.01 | 0.00 | 96 | 1018.7 |
| 20260906060553 | 68 | 89 | 1.7 | 6.1 | 0.00 | 0.01 | 0.00 | 96 | 1018.7 |
| 20260906060109 | 68 | 98 | 3.5 | 6.1 | 0.00 | 0.01 | 0.00 | 96 | 1018.7 |
| 20260906055553 | 68 | 113 | 2.6 | 5.2 | 0.00 | 0.01 | 0.00 | 97 | 1018.8 |
| 20260906055054 | 68 | 103 | 3.5 | 6.1 | 0.00 | 0.01 | 0.00 | 97 | 1018.8 |
| 20260906054607 | 68 | 109 | 4.3 | 6.1 | 0.00 | 0.01 | 0.00 | 97 | 1018.7 |
| 20260906054056 | 68 | 111 | 3.5 | 6.1 | 0.00 | 0.01 | 0.00 | 96 | 1018.7 |
| 20260906053556 | 68 | 101 | 3.5 | 7.0 | 0.00 | 0.01 | 0.00 | 97 | 1018.7 |
| 20260906053058 | 68 | 66 | 4.3 | 7.0 | 0.00 | 0.01 | 0.00 | 97 | 1018.7 |
| 20260906052555 | 68 | 103 | 4.3 | 6.1 | 0.00 | 0.01 | 0.00 | 97 | 1018.7 |
| 20260906052056 | 68 | 109 | 4.3 | 6.1 | 0.00 | 0.01 | 0.00 | 97 | 1018.6 |
| 20260906051606 | 68 | 107 | 5.2 | 6.1 | 0.00 | 0.01 | 0.00 | 97 | 1018.6 |
| 20260906051052 | 69 | 113 | 3.5 | 5.2 | 0.00 | 0.01 | 0.00 | 97 | 1018.6 |
| 20260906050552 | 69 | 85 | 2.6 | 5.2 | 0.00 | 0.01 | 0.00 | 97 | 1018.6 |
| 20260906050132 | 69 | 96 | 3.5 | 5.2 | 0.00 | 0.01 | 0.00 | 97 | 1018.6 |
| 20260906045553 | 69 | 104 | 3.5 | 5.2 | 0.00 | 0.01 | 0.01 | 97 | 1018.5 |
| 20260906045053 | 69 | 111 | 2.6 | 6.1 | 0.00 | 0.01 | 0.01 | 97 | 1018.5 |
| 20260906044559 | 69 | 66 | 1.7 | 6.1 | 0.00 | 0.01 | 0.01 | 96 | 1018.6 |
| 20260906044053 | 69 | 88 | 2.6 | 6.1 | 0.00 | 0.01 | 0.01 | 96 | 1018.6 |
| 20260906043552 | 68 | 101 | 1.7 | 3.5 | 0.00 | 0.01 | 0.01 | 96 | 1018.6 |
| 20260906043110 | 69 | 69 | 1.7 | 5.2 | 0.00 | 0.01 | 0.01 | 96 | 1018.7 |
| 20260906042552 | 69 | 78 | 1.7 | 5.2 | 0.00 | 0.01 | 0.01 | 96 | 1018.7 |
| 20260906042058 | 69 | 105 | 2.6 | 5.2 | 0.00 | 0.01 | 0.01 | 96 | 1018.6 |
| 20260906041606 | 69 | 128 | 0.9 | 3.5 | 0.00 | 0.01 | 0.01 | 96 | 1018.7 |
| 20260906041053 | 69 | 67 | 1.7 | 3.5 | 0.00 | 0.01 | 0.01 | 96 | 1018.7 |
| 20260906040554 | 69 | 47 | 0.9 | 3.5 | 0.00 | 0.01 | 0.01 | 96 | 1018.7 |
| 20260906040109 | 69 | 68 | 1.7 | 5.2 | 0.00 | 0.01 | 0.01 | 96 | 1018.7 |
| 20260906035555 | 69 | 99 | 2.6 | 5.2 | 0.00 | 0.01 | 0.01 | 96 | 1018.6 |
| 20260906035054 | 69 | 93 | 1.7 | 5.2 | 0.00 | 0.01 | 0.01 | 96 | 1018.5 |
| 20260906034559 | 70 | 82 | 2.6 | 5.2 | 0.00 | 0.01 | 0.01 | 96 | 1018.5 |
| 20260906034056 | 70 | 105 | 3.5 | 5.2 | 0.00 | 0.01 | 0.01 | 96 | 1018.4 |
| 20260906033553 | 70 | 115 | 1.7 | 6.1 | 0.00 | 0.01 | 0.01 | 96 | 1018.4 |
| 20260906033058 | 70 | 78 | 4.3 | 6.1 | 0.00 | 0.01 | 0.01 | 96 | 1018.2 |
| 20260906032554 | 70 | 106 | 4.3 | 6.1 | 0.00 | 0.01 | 0.01 | 96 | 1018.2 |
| 20260906032056 | 70 | 76 | 2.6 | 5.2 | 0.00 | 0.01 | 0.01 | 96 | 1018.3 |
| 20260906031604 | 70 | 109 | 3.5 | 6.1 | 0.00 | 0.01 | 0.01 | 96 | 1018.2 |
| 20260906031055 | 70 | 99 | 3.5 | 6.1 | 0.00 | 0.01 | 0.01 | 95 | 1018.2 |
| 20260906030555 | 70 | 103 | 4.3 | 7.0 | 0.00 | 0.01 | 0.01 | 96 | 1018.3 |
| 20260906030132 | 70 | 107 | 4.3 | 7.0 | 0.00 | 0.01 | 0.01 | 96 | 1018.2 |
| 20260906025555 | 71 | 111 | 4.3 | 6.1 | 0.00 | 0.01 | 0.01 | 96 | 1018.2 |
| 20260906025054 | 71 | 58 | 2.6 | 5.2 | 0.00 | 0.01 | 0.01 | 95 | 1018.2 |
| 20260906024609 | 71 | 99 | 3.5 | 6.1 | 0.00 | 0.01 | 0.01 | 95 | 1018.0 |
| 20260906024054 | 71 | 103 | 3.5 | 6.1 | 0.00 | 0.01 | 0.01 | 95 | 1018.0 |
| 20260906023555 | 71 | 108 | 4.3 | 6.1 | 0.00 | 0.01 | 0.01 | 95 | 1018.1 |
| 20260906023126 | 71 | 105 | 4.3 | 6.1 | 0.00 | 0.01 | 0.01 | 95 | 1017.9 |
| 20260906022554 | 71 | 122 | 3.5 | 5.2 | 0.00 | 0.01 | 0.01 | 95 | 1017.8 |
| 20260906022057 | 71 | 85 | 2.6 | 5.2 | 0.00 | 0.01 | 0.01 | 95 | 1017.9 |
| 20260906021616 | 71 | 85 | 3.5 | 7.0 | 0.00 | 0.01 | 0.01 | 95 | 1017.9 |
| 20260906021054 | 71 | 96 | 4.3 | 7.0 | 0.00 | 0.01 | 0.01 | 95 | 1017.8 |
| 20260906020553 | 71 | 89 | 2.6 | 5.2 | 0.00 | 0.01 | 0.01 | 95 | 1017.7 |
| 20260906020107 | 71 | 103 | 3.5 | 5.2 | 0.00 | 0.01 | 0.01 | 95 | 1017.7 |
| 20260906015554 | 71 | 100 | 3.5 | 7.0 | 0.00 | 0.01 | 0.01 | 95 | 1017.5 |
| 20260906015053 | 71 | 98 | 3.5 | 7.0 | 0.00 | 0.01 | 0.01 | 95 | 1017.4 |
| 20260906014623 | 71 | 89 | 2.6 | 7.0 | 0.00 | 0.01 | 0.01 | 95 | 1017.4 |
| 20260906014055 | 71 | 80 | 0.9 | 4.3 | 0.00 | 0.01 | 0.01 | 95 | 1017.3 |
| 20260906013554 | 71 | 88 | 1.7 | 4.3 | 0.00 | 0.01 | 0.01 | 95 | 1017.3 |
| 20260906013120 | 71 | 111 | 1.7 | 6.1 | 0.00 | 0.01 | 0.01 | 95 | 1017.1 |
| 20260906012552 | 71 | 65 | 1.7 | 6.1 | 0.00 | 0.01 | 0.01 | 95 | 1017.2 |
| 20260906012054 | 71 | 92 | 1.7 | 6.1 | 0.00 | 0.01 | 0.01 | 94 | 1017.0 |
| 20260906011604 | 71 | 78 | 0.9 | 6.1 | 0.00 | 0.01 | 0.01 | 94 | 1017.0 |
| 20260906011056 | 71 | 91 | 1.7 | 6.1 | 0.00 | 0.01 | 0.01 | 94 | 1016.9 |
| 20260906010555 | 72 | 101 | 0.9 | 2.6 | 0.00 | 0.01 | 0.01 | 94 | 1016.9 |
| 20260906010100 | 72 | 0 | 0.0 | 2.6 | 0.00 | 0.01 | 0.01 | 94 | 1017.0 |
| 20260906005554 | 72 | 90 | 0.9 | 5.2 | 0.00 | 0.01 | 0.01 | 94 | 1016.9 |
| 20260906005054 | 72 | 101 | 1.7 | 5.2 | 0.00 | 0.01 | 0.01 | 94 | 1016.7 |
| 20260906004606 | 72 | 98 | 1.7 | 2.6 | 0.00 | 0.01 | 0.01 | 94 | 1016.7 |
| 20260906004054 | 72 | 101 | 1.7 | 2.6 | 0.00 | 0.01 | 0.01 | 93 | 1016.7 |
| 20260906003554 | 72 | 101 | 0.9 | 3.5 | 0.00 | 0.01 | 0.01 | 93 | 1016.6 |
| 20260906003108 | 72 | 88 | 1.7 | 3.5 | 0.00 | 0.01 | 0.01 | 93 | 1016.5 |
| 20260906002555 | 73 | 82 | 0.0 | 3.5 | 0.00 | 0.01 | 0.01 | 93 | 1016.4 |
| 20260906002055 | 73 | 85 | 1.7 | 3.5 | 0.00 | 0.01 | 0.01 | 93 | 1016.4 |
| 20260906001559 | 73 | 92 | 2.6 | 3.5 | 0.00 | 0.01 | 0.01 | 92 | 1016.4 |
| 20260906001056 | 73 | 103 | 2.6 | 5.2 | 0.00 | 0.01 | 0.01 | 92 | 1016.3 |
| 20260906000554 | 73 | 95 | 2.6 | 5.2 | 0.00 | 0.01 | 0.01 | 92 | 1016.4 |
| 20260906000110 | 73 | 93 | 2.6 | 4.3 | 0.00 | 0.01 | 0.01 | 91 | 1016.3 |
| 20260905235556 | 74 | 100 | 1.7 | 5.2 | 0.00 | 0.01 | 0.01 | 91 | 1016.3 |
| 20260905235054 | 74 | 105 | 1.7 | 5.2 | 0.00 | 0.01 | 0.01 | 91 | 1016.3 |
| 20260905234615 | 74 | 107 | 2.6 | 5.2 | 0.00 | 0.01 | 0.01 | 91 | 1016.4 |
| 20260905234055 | 74 | 90 | 2.6 | 5.2 | 0.00 | 0.01 | 0.01 | 90 | 1016.4 |
| 20260905233554 | 74 | 116 | 3.5 | 5.2 | 0.00 | 0.01 | 0.01 | 90 | 1016.3 |
| 20260905233100 | 74 | 80 | 1.7 | 5.2 | 0.00 | 0.01 | 0.01 | 90 | 1016.2 |
| 20260905232555 | 74 | 103 | 1.7 | 5.2 | 0.00 | 0.01 | 0.01 | 90 | 1016.3 |
| 20260905232055 | 74 | 70 | 1.7 | 5.2 | 0.00 | 0.01 | 0.01 | 90 | 1016.3 |
| 20260905231608 | 74 | 16 | 0.9 | 4.3 | 0.00 | 0.01 | 0.01 | 90 | 1016.4 |
| 20260905231054 | 74 | 105 | 0.9 | 4.3 | 0.00 | 0.01 | 0.01 | 90 | 1016.4 |
| 20260905230555 | 75 | 61 | 1.7 | 4.3 | 0.00 | 0.01 | 0.01 | 89 | 1016.4 |
| 20260905230109 | 75 | 32 | 0.9 | 4.3 | 0.00 | 0.01 | 0.01 | 89 | 1016.4 |
| 20260905225556 | 75 | 113 | 1.7 | 5.2 | 0.00 | 0.01 | 0.01 | 89 | 1016.3 |
| 20260905225054 | 75 | 84 | 1.7 | 7.0 | 0.00 | 0.01 | 0.01 | 89 | 1016.2 |
| 20260905224609 | 75 | 127 | 2.6 | 8.7 | 0.00 | 0.01 | 0.01 | 89 | 1016.2 |
| 20260905224053 | 75 | 85 | 4.3 | 10.4 | 0.00 | 0.01 | 0.01 | 89 | 1016.1 |
| 20260905223554 | 75 | 103 | 6.1 | 10.4 | 0.00 | 0.01 | 0.01 | 88 | 1016.0 |
| 20260905223108 | 75 | 105 | 7.0 | 13.0 | 0.00 | 0.01 | 0.01 | 88 | 1016.0 |
| 20260905222555 | 75 | 98 | 7.0 | 13.0 | 0.00 | 0.01 | 0.01 | 88 | 1015.9 |
| 20260905222055 | 75 | 106 | 8.7 | 11.3 | 0.00 | 0.01 | 0.01 | 88 | 1015.9 |
| 20260905221605 | 75 | 96 | 7.0 | 10.4 | 0.00 | 0.01 | 0.01 | 89 | 1015.9 |
| 20260905221054 | 75 | 96 | 7.0 | 10.4 | 0.00 | 0.01 | 0.01 | 89 | 1015.9 |
| 20260905220554 | 75 | 111 | 4.3 | 8.7 | 0.00 | 0.01 | 0.01 | 90 | 1015.9 |
| 20260905220103 | 75 | 71 | 2.6 | 7.0 | 0.00 | 0.01 | 0.01 | 90 | 1016.0 |
| 20260905215554 | 75 | 41 | 1.7 | 5.2 | 0.00 | 0.01 | 0.01 | 90 | 1016.0 |
| 20260905215054 | 75 | 29 | 1.7 | 6.1 | 0.00 | 0.01 | 0.01 | 90 | 1016.1 |
| 20260905214606 | 75 | 92 | 0.9 | 6.1 | 0.00 | 0.01 | 0.01 | 91 | 1016.1 |
| 20260905214054 | 75 | 98 | 1.7 | 9.6 | 0.00 | 0.01 | 0.01 | 90 | 1016.0 |
| 20260905213554 | 75 | 92 | 2.6 | 10.4 | 0.00 | 0.01 | 0.01 | 90 | 1016.1 |
| 20260905213103 | 75 | 107 | 7.8 | 11.3 | 0.00 | 0.01 | 0.01 | 90 | 1015.9 |
| 20260905212554 | 75 | 92 | 5.2 | 11.3 | 0.00 | 0.01 | 0.01 | 90 | 1015.9 |
| 20260905212053 | 74 | 85 | 5.2 | 8.7 | 0.00 | 0.01 | 0.01 | 90 | 1016.0 |
| 20260905211604 | 74 | 131 | 3.5 | 8.7 | 0.00 | 0.01 | 0.01 | 90 | 1016.1 |
| 20260905211053 | 74 | 109 | 3.5 | 8.7 | 0.00 | 0.01 | 0.01 | 90 | 1016.2 |
| 20260905210554 | 74 | 63 | 2.6 | 8.7 | 0.00 | 0.01 | 0.01 | 90 | 1016.2 |
| 20260905210106 | 74 | 34 | 3.5 | 8.7 | 0.00 | 0.01 | 0.01 | 90 | 1016.2 |
| 20260905205555 | 74 | 116 | 2.6 | 7.8 | 0.00 | 0.01 | 0.01 | 90 | 1016.1 |
| 20260905205058 | 74 | 83 | 1.7 | 10.4 | 0.00 | 0.01 | 0.01 | 91 | 1016.0 |
| 20260905204558 | 74 | 101 | 2.6 | 10.4 | 0.00 | 0.01 | 0.01 | 90 | 1016.1 |
| 20260905204053 | 74 | 65 | 2.6 | 9.6 | 0.00 | 0.01 | 0.01 | 90 | 1016.1 |
| 20260905203557 | 74 | 9 | 1.7 | 9.6 | 0.00 | 0.01 | 0.01 | 90 | 1016.2 |
| 20260905203108 | 74 | 71 | 2.6 | 9.6 | 0.00 | 0.01 | 0.01 | 90 | 1016.2 |
| 20260905202555 | 74 | 169 | 2.6 | 9.6 | 0.00 | 0.01 | 0.01 | 90 | 1016.3 |
| 20260905202053 | 74 | 360 | 0.9 | 7.8 | 0.00 | 0.01 | 0.01 | 90 | 1016.4 |
| 20260905201607 | 74 | 46 | 1.7 | 7.8 | 0.00 | 0.01 | 0.01 | 91 | 1016.5 |
| 20260905201053 | 74 | 35 | 1.7 | 8.7 | 0.00 | 0.01 | 0.01 | 90 | 1016.6 |
| 20260905200555 | 74 | 117 | 4.3 | 8.7 | 0.00 | 0.01 | 0.01 | 89 | 1016.7 |
| 20260905200101 | 74 | 67 | 2.6 | 7.8 | 0.00 | 0.01 | 0.01 | 89 | 1016.7 |
| 20260905195555 | 75 | 119 | 1.7 | 9.6 | 0.00 | 0.01 | 0.01 | 90 | 1016.5 |
| 20260905195053 | 74 | 94 | 4.3 | 9.6 | 0.00 | 0.01 | 0.01 | 89 | 1016.6 |
| 20260905194608 | 75 | 28 | 2.6 | 8.7 | 0.00 | 0.01 | 0.01 | 88 | 1016.5 |
| 20260905194054 | 75 | 73 | 2.6 | 8.7 | 0.00 | 0.01 | 0.01 | 88 | 1016.7 |
| 20260905193551 | 75 | 56 | 1.7 | 8.7 | 0.00 | 0.01 | 0.01 | 88 | 1017.0 |
| 20260905193106 | 75 | 82 | 1.7 | 7.0 | 0.00 | 0.01 | 0.01 | 89 | 1017.0 |
| 20260905192556 | 75 | 36 | 3.5 | 7.0 | 0.00 | 0.01 | 0.01 | 88 | 1017.2 |
| 20260905192057 | 75 | 20 | 1.7 | 7.0 | 0.00 | 0.01 | 0.01 | 88 | 1017.3 |
| 20260905191615 | 75 | 25 | 2.6 | 6.1 | 0.00 | 0.01 | 0.01 | 88 | 1017.5 |
| 20260905191054 | 75 | 22 | 0.9 | 3.5 | 0.00 | 0.01 | 0.01 | 89 | 1017.8 |
| 20260905190556 | 75 | 98 | 0.9 | 7.0 | 0.00 | 0.01 | 0.01 | 90 | 1017.9 |
| 20260905190103 | 74 | 22 | 2.6 | 7.0 | 0.00 | 0.01 | 0.01 | 89 | 1017.9 |
| 20260905185556 | 74 | 26 | 0.9 | 2.6 | 0.00 | 0.01 | 0.01 | 91 | 1018.1 |
| 20260905185055 | 73 | 295 | 0.9 | 2.6 | 0.00 | 0.01 | 0.01 | 90 | 1018.2 |
| 20260905184618 | 73 | 340 | 0.9 | 4.3 | 0.00 | 0.01 | 0.01 | 90 | 1018.3 |
| 20260905184053 | 73 | 300 | 0.9 | 4.3 | 0.00 | 0.01 | 0.01 | 89 | 1018.4 |
| 20260905183554 | 74 | 63 | 1.7 | 5.2 | 0.00 | 0.01 | 0.01 | 90 | 1018.2 |
| 20260905183100 | 74 | 42 | 0.9 | 5.2 | 0.00 | 0.01 | 0.01 | 89 | 1018.1 |
| 20260905182557 | 74 | 136 | 2.6 | 6.1 | 0.00 | 0.01 | 0.01 | 89 | 1018.1 |
| 20260905182058 | 74 | 80 | 1.7 | 6.1 | 0.00 | 0.01 | 0.01 | 89 | 1018.1 |
| 20260905181604 | 74 | 33 | 1.7 | 4.3 | 0.00 | 0.01 | 0.01 | 91 | 1018.1 |
| 20260905181054 | 74 | 219 | 1.7 | 4.3 | 0.00 | 0.01 | 0.01 | 91 | 1018.0 |
| 20260905180554 | 73 | 51 | 1.7 | 5.2 | 0.00 | 0.01 | 0.01 | 90 | 1018.2 |